Location: Breitenfeld
(46.8500°N, 15.6333°E)
Time: 08:01:18
(UTC+00:00)

Daily predictions for brighter satellites

Satellite Brightness Start Highest point End
(mag) Time Altitude Azimuth Time Altitude Azimuth Time Altitude Azimuth
Cosmos 2074 Rocket 4.1 17:59:10 10° N 18:05:28 70° E 18:11:45 10° SSE
STARLINK-67 2.3 18:03:34 10° WNW 18:06:08 77° NNE 18:08:42 10° ESE
IRS-1A Rocket 4.4 18:05:28 10° SSE 18:11:10 72° ENE 18:17:01 10° NNW
SJ-11-01 4.4 18:09:17 10° SSE 18:14:00 90° WNW 18:18:47 10° NNW
ATLAS 2AS CENTAUR R/B 2.9 18:09:37 10° NW 18:17:18 88° NE 18:24:18 10° SE
SeaSat 1 2.6 18:14:06 10° NNE 18:19:04 83° WNW 18:23:59 10° SSW
STARLINK-1234 3.0 18:17:40 10° WNW 18:20:47 65° NNE 18:23:38 12° ESE
STARLINK-1209 3.0 18:18:08 10° WNW 18:21:15 69° NNE 18:24:05 12° ESE
ATLAS 5 CENTAUR R/B 1.7 18:17:30 10° SSW 18:21:28 48° ESE 18:25:54 10° NE
STARLINK-1233 3.3 18:18:33 10° NW 18:21:38 53° NNE 18:24:29 12° E
STARLINK-1212 3.3 18:19:01 10° NW 18:22:06 53° NNE 18:24:55 12° ESE
STARLINK-1105 3.3 18:19:27 10° NW 18:22:32 53° NNE 18:25:21 12° ESE
STARLINK-1206 3.3 18:19:55 10° NW 18:23:00 53° NNE 18:25:45 12° ESE
STARLINK-1247 3.3 18:20:23 10° NW 18:23:28 54° NNE 18:26:12 12° ESE
H-2A R/B 2.0 18:18:29 10° SSE 18:23:40 83° ENE 18:28:44 10° NNW
STARLINK-1227 3.3 18:20:47 10° NW 18:23:53 54° NNE 18:26:38 12° ESE
STARLINK-1218 3.2 18:21:17 10° NW 18:24:22 55° NNE 18:27:04 13° ESE
STARLINK-1226 3.2 18:21:43 10° NW 18:24:49 55° NNE 18:27:30 13° ESE
COSMOS 2455 3.1 18:19:02 10° NNW 18:24:58 55° NE 18:30:46 10° SE
STARLINK-1254 3.2 18:22:09 10° NW 18:25:15 56° NNE 18:27:57 13° ESE
STARLINK-1215 3.2 18:22:38 10° NW 18:25:43 56° NNE 18:28:22 13° ESE
STARLINK-1231 3.2 18:23:06 10° NW 18:26:10 56° NNE 18:28:48 13° ESE
STARLINK-1232 3.2 18:24:00 10° NW 18:27:05 57° NNE 18:29:41 14° ESE
STARLINK-1138 4.5 18:23:21 10° WNW 18:27:20 43° NNE 18:31:13 10° E
STARLINK-1217 3.2 18:24:26 10° NW 18:27:32 57° NNE 18:30:07 14° ESE
STARLINK-1208 3.2 18:24:51 10° NW 18:27:58 58° NNE 18:30:33 14° ESE
Abrixas rocket 1.9 18:25:09 10° WNW 18:28:07 89° SSW 18:30:32 14° ESE
STARLINK-1229 3.2 18:25:20 10° NW 18:28:25 58° NNE 18:30:58 14° ESE
STARLINK-1271 3.1 18:25:47 10° NW 18:28:53 58° NNE 18:31:25 14° ESE
STARLINK-1270 3.1 18:26:14 10° NW 18:29:20 59° NNE 18:31:51 14° ESE
STARLINK-1154 3.1 18:26:42 10° WNW 18:29:48 59° NNE 18:32:17 15° ESE
STARLINK-1197 3.1 18:27:36 10° WNW 18:30:41 60° NNE 18:33:09 15° ESE
Cosmos 1140 Rocket 3.7 18:26:04 10° S 18:31:02 49° ESE 18:36:01 10° NNE
STARLINK-1189 3.1 18:28:02 10° WNW 18:31:08 60° NNE 18:33:34 15° ESE
STARLINK-1198 3.1 18:28:30 10° WNW 18:31:36 61° NNE 18:34:01 15° ESE
STARLINK-1188 3.1 18:28:56 10° WNW 18:32:02 61° NNE 18:34:26 15° ESE
STARLINK-1143 4.4 18:28:20 10° WNW 18:32:20 44° NNE 18:36:00 12° E
STARLINK-1235 2.9 18:29:35 10° WNW 18:32:44 76° NNE 18:35:09 16° ESE
Ariane Rocket 3.3 18:27:53 10° S 18:32:56 73° WSW 18:38:01 10° NNW
STARLINK-1187 3.0 18:30:00 10° WNW 18:33:08 69° NNE 18:35:33 16° ESE
STARLINK-1199 3.1 18:30:52 10° WNW 18:34:00 64° NNE 18:36:21 16° ESE
STARLINK-1191 3.1 18:31:19 10° WNW 18:34:27 64° NNE 18:36:47 16° ESE
STARLINK-1210 3.0 18:31:47 10° WNW 18:34:54 64° NNE 18:37:13 17° ESE
STARLINK-1221 3.0 18:32:13 10° WNW 18:35:22 65° NNE 18:37:40 17° ESE
STARLINK-1219 3.0 18:32:41 10° WNW 18:35:48 65° NNE 18:38:06 17° ESE
STARLINK-1222 3.0 18:33:08 10° WNW 18:36:15 66° NNE 18:38:31 17° ESE
STARLINK-1211 3.0 18:33:35 10° WNW 18:36:43 66° NNE 18:38:58 17° ESE
STARLINK-1214 3.0 18:34:02 10° WNW 18:37:10 67° NNE 18:39:24 18° ESE
STARLINK-1241 4.3 18:33:22 10° WNW 18:37:22 46° NNE 18:40:49 13° E
STARLINK-1245 3.0 18:34:30 10° WNW 18:37:37 67° NNE 18:39:48 18° ESE
STARLINK-1238 3.0 18:34:55 10° WNW 18:38:04 68° NNE 18:40:15 18° ESE
Meteor 1-16 Rocket 4.5 18:32:59 10° SSW 18:38:24 74° WNW 18:44:03 10° N
CZ-2C R/B 3.0 18:33:42 10° SSE 18:38:32 81° WSW 18:43:19 10° NNW
Cosmos 614 Rocket 4.0 18:33:41 10° SSW 18:38:54 89° WNW 18:44:09 10° NNE
ERBS 3.7 18:35:57 10° NW 18:38:59 29° NNE 18:41:22 14° E
STARLINK-1205 2.9 18:35:51 10° WNW 18:38:59 69° NNE 18:41:07 18° ESE
APEX 4.4 18:32:49 10° NNW 18:39:17 77° WSW 18:44:29 10° SSE
STARLINK-1204 2.9 18:36:18 10° WNW 18:39:26 69° NNE 18:41:33 19° ESE
MONITOR-E 4.2 18:39:24 10° S 18:41:59 62° WSW 18:44:37 10° NNW
STARLINK-1239 4.3 18:38:20 10° WNW 18:42:21 48° NNE 18:45:35 15° E
ATLAS CENTAUR R/B 3.7 18:42:05 10° N 18:43:08 11° NNE 18:44:10 10° NE
STARLINK-29 2.8 18:40:41 10° SW 18:43:52 74° SSE 18:47:05 10° ENE
Cosmos 1190 Rocket 4.0 18:39:39 10° SSW 18:44:56 75° ESE 18:50:14 10° NNE
SJ-6B 3.0 18:40:57 10° SSE 18:45:05 86° W 18:49:14 10° NNW
Resurs 1-3 3.9 18:41:31 11° SE 18:45:29 49° ENE 18:49:44 10° N
Aureole 1 Rocket 4.1 18:38:42 10° SSW 18:46:07 89° ESE 18:51:51 10° NNE
Cosmos 1300 3.3 18:43:31 10° SSE 18:46:59 34° E 18:50:28 10° NNE
STARLINK-1240 4.2 18:43:18 10° WNW 18:47:21 50° NNE 18:50:22 17° E
BREEZE-M DEB (TANK) 3.5 18:42:42 10° WNW 18:48:59 76° SSW 18:50:46 22° ESE
STARLINK-60 3.7 18:48:18 10° WSW 18:51:32 54° NNW 18:54:46 10° NE
SL-24 R/B 3.7 18:48:01 10° NNE 18:51:58 60° E 18:55:37 10° S
STARLINK-1216 4.1 18:48:16 10° WNW 18:52:20 52° NNE 18:55:08 19° E
CZ-2C R/B 3.7 18:50:08 10° NNE 18:54:50 66° ESE 18:59:24 10° S
STARLINK-1237 4.0 18:53:14 10° WNW 18:57:19 55° NNE 18:59:54 21° E
Cosmos 2058 Rocket 3.1 18:54:53 10° S 18:59:24 89° E 19:03:56 10° N
SL-08 RB Rocket 4.0 18:57:32 10° S 19:02:05 71° WSW 19:06:43 10° NNW
Cosmos 1726 Rocket 4.3 18:57:47 10° SSW 19:02:07 56° WNW 19:06:31 10° N
STARLINK-1202 4.0 18:58:14 10° WNW 19:02:20 57° NNE 19:04:42 23° E
Cosmos 1461 3.8 18:59:44 10° NW 19:04:10 51° WSW 19:08:01 14° SSE
STARLINK-1228 3.3 19:01:37 10° WNW 19:04:29 49° SW 19:05:31 31° SSE
DMSP B5D2-2 4.0 19:00:47 10° NNE 19:06:00 64° ESE 19:11:11 10° S
Cosmos 921 Rocket 3.1 19:02:06 10° NNW 19:06:17 75° WSW 19:09:43 15° S
Cosmos 2341 Rocket 4.0 19:00:51 10° N 19:07:16 74° E 19:13:23 11° SSE
SL-4 R/B 2.6 19:04:55 10° W 19:08:11 42° NNW 19:10:56 14° ENE
Cosmos 407 Rocket 4.1 19:05:33 10° SW 19:10:37 58° WNW 19:15:42 10° NNE
CZ-4C R/B 4.1 19:05:07 10° NNW 19:10:56 29° NNE 19:16:38 13° E
Cosmos 1340 Rocket 3.3 19:07:01 10° SSW 19:11:02 62° WNW 19:15:02 10° N
STARLINK-1246 3.8 19:08:10 10° WNW 19:12:18 64° NNE 19:14:15 29° E
Cosmos 1408 4.5 19:10:26 10° NNE 19:12:35 16° ENE 19:12:35 16° ENE
RESURS DK-1 3.9 19:09:51 10° N 19:13:08 22° NE 19:14:21 19° ENE
STARLINK-1201 3.0 19:10:20 10° WNW 19:13:36 69° SSW 19:14:33 41° SE
Cosmos 676 Rocket 3.9 19:08:52 10° SSW 19:14:09 80° ESE 19:19:25 10° NNE
COSMOS 2406 4.1 19:13:01 25° SE 19:14:21 27° ESE 19:19:03 10° NE
STARLINK-1224 3.7 19:13:11 10° WNW 19:17:19 68° NNE 19:19:04 33° E
Cosmos 2218 Rocket 4.1 19:12:19 10° N 19:18:27 56° ENE 19:22:17 23° SSE
MetOp-A 4.3 19:13:38 10° S 19:18:58 72° WSW 19:24:21 10° NNW
STARLINK-1203 3.7 19:15:19 10° WNW 19:19:32 74° NNE 19:21:13 35° ESE
Cosmos 2058 3.3 19:16:10 10° N 19:20:07 43° ENE 19:21:10 36° ESE
Resurs 01 Rocket 1.5 19:17:44 24° SSE 19:20:21 79° ENE 19:24:48 10° N
Cosmos 220 Rocket 4.0 19:16:06 10° NNW 19:20:26 64° ENE 19:22:11 34° SE
STARLINK-1225 3.7 19:18:10 10° WNW 19:22:19 72° NNE 19:23:51 37° E
MOS 1 Rocket 3.6 19:17:08 10° NNE 19:22:36 83° ESE 19:28:02 10° S
CZ-2C R/B 2.4 19:18:42 10° NNE 19:23:54 78° ESE 19:29:07 10° S
STARLINK-52 3.3 19:21:05 10° WSW 19:24:16 63° NNW 19:25:57 25° NE
BREEZE M DEB (TANK) 3.0 19:23:24 10° SW 19:26:38 57° SE 19:35:46 10° ENE
Cosmos 1812 Rocket 3.7 19:25:20 33° SSE 19:26:53 51° E 19:31:05 10° NNE
STARLINK-1230 3.6 19:23:08 10° WNW 19:27:17 76° NNE 19:28:37 41° ESE
SPOT 3 Rocket 4.2 19:23:00 10° S 19:28:06 56° W 19:33:14 10° NNW
Cosmos 1697 Rocket 3.8 19:25:41 10° NNW 19:30:43 31° NE 19:32:44 25° E
SL-8 Rocket 4.0 19:24:25 10° N 19:30:46 81° E 19:35:13 21° SSE
Cosmos 2151 4.2 19:27:29 10° NNE 19:30:59 25° ENE 19:30:59 25° ENE
STARLINK-1243 3.6 19:28:06 10° WNW 19:32:15 81° NNE 19:33:24 47° ESE
Cosmos 864 Rocket 4.5 19:26:12 10° N 19:32:22 64° ENE 19:35:37 29° SSE
FALCON 9 DEB 3.7 19:29:11 10° WSW 19:32:39 58° NNW 19:34:32 24° NE
Iridium 2 3.5 19:33:27 42° SSE 19:34:38 76° E 19:38:28 10° N
Cosmos 2181 Rocket 3.9 19:29:16 10° S 19:35:30 80° E 19:41:41 10° N
Cosmos 1954 Rocket 4.2 19:30:34 10° SSW 19:35:47 72° WNW 19:41:01 10° NNE
STARLINK-1236 3.5 19:33:05 10° WNW 19:37:15 85° NNE 19:38:11 53° ESE
Cosmos 1741 Rocket 4.1 19:41:05 28° S 19:43:43 56° ESE 19:48:56 10° NNE
Meteor 2-1 Rocket 4.3 19:41:06 24° S 19:44:40 65° E 19:50:33 10° NNE
Cosmos 2366 rocket 3.9 19:38:43 10° N 19:44:55 82° E 19:48:11 30° SSE
Cosmos 1076 Rocket 3.4 19:40:56 10° N 19:45:16 84° E 19:46:20 50° SSE
STARLINK-1269 3.5 19:43:02 10° WNW 19:47:11 84° SW 19:47:44 66° SE
Landsat 7 4.0 19:46:17 46° ESE 19:47:14 55° ENE 19:51:53 10° N
Cosmos 1959 Rocket 4.4 19:42:47 10° N 19:49:09 89° E 19:52:36 29° S
Cosmos 1656 3.7 19:44:02 10° NNW 19:49:43 65° ENE 19:51:23 44° ESE
Cosmos 1763 Rocket 3.4 19:44:58 10° NNW 19:50:10 72° ENE 19:51:29 49° SE
SPOT 1/Viking Rocket 3.7 19:50:07 45° ESE 19:51:18 55° ENE 19:56:25 10° N
SL-16 R/B 4.5 19:49:19 10° N 19:51:30 12° NNE 19:53:40 10° NE
STARLINK-1200 3.4 19:48:01 10° WNW 19:52:10 79° SSW 19:52:31 71° SSE
Cosmos 540 Rocket 4.0 19:48:53 10° N 19:53:47 40° ENE 19:54:31 38° E
Cosmos 2208 Rocket 4.4 19:49:38 10° NNW 19:54:40 46° ENE 19:55:32 43° E
Cosmos 1455 3.5 19:56:32 29° NE 19:56:32 29° NE 19:58:45 10° NNE
STARLINK-1192 3.5 19:53:00 10° WNW 19:57:08 74° SSW 19:57:18 72° S
Nadezhda 3 Rocket 4.4 19:56:45 39° ESE 19:57:34 41° E 20:03:22 10° NNE
Iridium 4 Rocket 2.8 19:54:24 10° N 19:58:36 89° WSW 19:59:05 69° S
USA 234 3.3 19:52:35 10° ENE 19:58:57 51° SE 20:05:17 10° SSW
Cosmos 1980 Rocket 3.3 19:55:58 10° N 20:00:52 30° NE 20:02:02 27° ENE
Cosmos 1174 4.4 19:57:25 10° NW 20:01:39 67° WSW 20:02:39 52° S
Cosmos 1892 2.7 19:58:14 10° NNW 20:02:08 79° W 20:02:13 78° WSW
STARLINK-1244 3.6 19:58:04 10° WNW 20:02:10 68° SW 20:02:10 68° SW
Abrixas rocket 4.5 20:01:05 10° W 20:02:07 16° WSW 20:02:07 16° WSW
Cosmos 1814 Rocket 4.3 20:00:03 10° NNW 20:05:15 49° ENE 20:05:54 47° E
ATLAS 5 CENTAUR R/B 3.6 20:02:32 10° W 20:06:19 29° NW 20:10:34 10° NNE
Cosmos 1825 3.3 20:03:06 10° N 20:05:39 34° NNE 20:05:39 34° NNE
STARLINK-1138 3.8 20:02:59 10° WNW 20:06:52 62° SW 20:06:52 62° SW
Cosmos-2242 3.5 20:08:41 47° NE 20:08:41 47° NE 20:12:07 10° NNE
COSMOS 2455 4.3 20:05:26 10° NW 20:10:36 31° WSW 20:13:57 18° SSW
STARLINK-1143 4.0 20:07:58 10° WNW 20:11:39 55° WSW 20:11:39 55° WSW
Meteor 2-3 Rocket 4.5 20:07:35 10° N 20:12:51 36° ENE 20:13:03 36° ENE
Cosmos 1356 Rocket 3.7 20:13:46 59° NE 20:13:46 59° NE 20:17:18 10° NNE
Cosmos 489 Rocket 4.4 20:08:45 10° NNW 20:15:00 81° ENE 20:16:28 55° SE
ERBS 3.9 20:12:10 10° WNW 20:14:20 32° W 20:14:20 32° W
STARLINK-1241 4.2 20:13:00 10° WNW 20:16:28 49° WSW 20:16:28 49° WSW
IGS 5A 3.6 20:20:27 71° WNW 20:20:27 71° WNW 20:24:26 10° NNW
STARLINK-1239 4.5 20:17:58 10° WNW 20:21:14 43° WSW 20:21:14 43° WSW
ATLAS CENTAUR R/B 2.3 20:19:19 10° NNW 20:22:10 37° N 20:22:10 37° N
Spot 2 Rocket 4.0 20:22:15 41° SSW 20:23:37 54° W 20:28:38 10° NNW
Cosmos 1821 Rocket 4.0 20:19:13 10° N 20:25:37 71° E 20:26:40 60° SE
USA 32 3.9 20:20:36 10° N 20:25:52 87° W 20:26:23 73° S
Cosmos 1934 Rocket 4.4 20:20:41 10° N 20:26:40 45° ENE 20:26:55 45° E
Cosmos 1850 Rocket 4.3 20:24:21 21° SW 20:27:46 63° WNW 20:32:55 10° NNE
Cosmos 2360 4.4 20:23:16 10° NNW 20:28:53 56° ENE 20:29:15 55° ENE
Terra 2.2 20:29:53 52° NE 20:29:53 52° NE 20:34:01 10° N
Cosmos 841 Rocket 3.3 20:24:03 10° NNW 20:29:22 85° ENE 20:29:32 83° ESE
SPOT 5 2.9 20:31:40 59° N 20:31:40 59° N 20:35:15 10° N
Mayak 1.2 20:27:57 10° NE 20:28:24 12° NE 20:28:24 12° NE
Cosmos 2082 Rocket 3.4 20:34:09 28° ENE 20:34:09 28° ENE 20:37:04 10° NE
Cosmos 2278 3.9 20:26:39 10° NNW 20:32:15 56° ENE 20:32:29 56° ENE
Meteor 2-10 Rocket 3.5 20:33:52 75° SSW 20:34:19 85° WNW 20:39:48 10° N
Cosmos 1833 Rocket 2.7 20:39:02 63° ENE 20:39:02 63° ENE 20:43:56 10° NNE
CARTOSAT-1 4.0 20:39:31 59° NNW 20:39:31 59° NNW 20:43:04 10° NNW
ERS-1 Rocket 3.1 20:47:00 65° W 20:47:00 65° W 20:51:58 10° NNW
Cosmos 1408 4.4 20:44:36 10° NNW 20:46:55 30° NW 20:46:55 30° NW
SL-4 R/B 3.9 20:44:56 10° WNW 20:46:33 23° NW 20:46:33 23° NW
RESURS DK-1 3.8 20:47:24 10° NW 20:50:15 36° WNW 20:50:15 36° WNW
Cosmos 1766 Rocket 4.4 20:49:17 10° NNW 20:52:50 50° NW 20:52:50 50° NW
BREEZE M DEB (TANK) 4.5 20:50:14 10° W 20:53:25 30° WNW 20:53:25 30° WNW
Resurs 01 Rocket 4.3 20:55:49 10° WSW 20:57:25 12° W 20:59:01 10° WNW
COSMOS 2406 3.9 20:54:52 23° SW 20:58:20 53° WNW 21:03:56 10° NNE
CZ-4C R/B 2.9 20:53:24 10° NW 21:00:33 78° NE 21:01:49 64° ESE
Cosmos 1697 Rocket 3.3 21:09:27 10° NW 21:14:29 49° W 21:14:29 49° W
Cosmos 2369 4.3 21:09:35 10° NW 21:14:34 50° W 21:14:34 50° W
SL-16 R/B 3.1 21:31:38 10° NNW 21:36:11 43° NNE 21:36:11 43° NNE
Cosmos 2360 Rocket 3.8 21:32:57 10° N 21:37:32 25° NE 21:37:32 25° NE
USA 234 3.6 21:35:38 10° NE 21:42:04 62° NNW 21:48:30 10° WSW
Cosmos 2322 Rocket 3.2 21:38:40 10° NNW 21:43:04 40° NNE 21:43:04 40° NNE
Cosmos 1980 Rocket 3.1 21:39:42 10° NW 21:43:48 43° WNW 21:43:48 43° WNW
Cosmos 2333 Rocket 4.3 21:55:34 10° N 21:59:14 17° NE 22:00:27 16° NE
Cosmos 1727 Rocket 4.4 22:05:51 60° N 22:05:51 60° N 22:10:56 10° N
Mayak 1.2 22:03:19 10° N 22:04:58 20° NNW 22:04:58 20° NNW
Terra 4.1 22:08:45 17° WNW 22:08:45 17° WNW 22:10:47 10° NW
Cosmos 2082 Rocket 3.4 22:15:55 36° NW 22:15:56 36° NW 22:21:10 10° NNE
Cosmos 2100 Rocket 4.5 22:15:50 10° N 22:20:40 57° N 22:20:40 57° N
Cosmos 2219 Rocket 3.9 22:30:06 10° N 22:34:41 25° NE 22:34:41 25° NE
CZ-4C R/B 4.2 22:42:32 10° NW 22:47:00 28° W 22:47:00 28° W
COSMOS 2428 4.0 22:59:03 10° NNW 23:03:37 35° NE 23:03:37 35° NE
SL-16 R/B 4.2 23:16:07 10° NW 23:18:03 19° WNW 23:18:03 19° WNW
Cosmos 2360 Rocket 3.7 23:16:28 10° NNW 23:19:17 30° NW 23:19:17 30° NW
CZ-2D R/B 4.4 23:19:13 10° NE 23:21:40 16° ENE 23:21:40 16° ENE
USA 234 4.5 23:18:32 10° ENE 23:24:27 38° N 23:30:22 10° WNW
Cosmos 2322 Rocket 4.2 23:23:02 10° NW 23:24:52 19° NW 23:24:52 19° NW
Cosmos 2333 Rocket 3.3 23:38:50 10° NNW 23:42:25 40° NNW 23:42:25 40° NNW
Cosmos 2237 Rocket 3.7 23:40:26 10° NNW 23:45:29 32° NE 23:46:25 30° ENE
SL-16 R/B 3.3 23:48:42 43° ENE 23:49:07 44° ENE 23:54:58 10° N
Lacrosse 5 rocket 4.3 23:54:19 12° NE 23:54:19 12° NE 23:54:35 10° NE
